Weather in Sarul

Russia / Republic of Kalmykia     45°49′09″N   45°28′33″E
temp.,
°C
wind,
m/s
gust,
m/s
humid.,
%
clouds,
%
prec.,
mm/h
press.,
hPa
HPBL,
m
13 june, sun
sun1300:00+25ssw364497 0.1 1012237
03:00+24s2347100 0.1 101163
06:00+24se3448100 0.0 1012189
09:00+27se343996 0.0 1012938
12:00+30se5633100 0.0 10112078
15:00+28se5533100 0.0 10111097
18:00+27se2441100 0.0 1011195
21:00+21n6771100 0.9 1012222
14 june, mon
mon1400:00+22ne2369100 0.0 1012242
03:00+21ssw2374100 0.3 1012156
06:00+19nnw4585100 1.8 1012253
09:00+21nne457177 1.8 1012588
12:00+25ne435634 0.1 10121266
15:00+27n434995 0.1 10111665
18:00+27nnw43497 0.0 10111382
21:00+23n46613 0.0 1011200
15 june, tue
tue1500:00+22n46692 0.0 1010171
03:00+20n468118 0.0 1009172
06:00+20n5676100 0.0 1009314
09:00+25nnw4355100 0.0 1008672
12:00+28nw4442100 0.0 10081119
15:00+30nnw433797 0.0 10081653
18:00+29nw33360 0.0 10081522
21:00+25nw45495 0.0 1009105
16 june, wed
wed1600:00+24nw33520 0.0 100938
03:00+23nnw34600 0.0 100963
06:00+24n22610 0.0 1011144
09:00+28ene22470 0.0 10101040
12:00+31e34360 0.0 10101726
15:00+34e35290 0.0 10082494
18:00+34ese3428100 0.0 10082563
21:00+29se47380 0.0 1009178
17 june, thu
thu1700:00+26se23471 0.0 100931
03:00+24se22608 0.3 100927
06:00+26ene46504 0.1 1009310
09:00+31ene810363 0.1 10081112
12:00+36e1112220 0.0 10052279
15:00+37ese10112218 0.0 10042637
18:00+34ese91127100 0.0 10041137
21:00+24wnw13157199 0.0 1009555